TimeEDT,TemperatureF,Dew PointF,Humidity,Sea Level PressureIn,VisibilityMPH,Wind Direction,Wind SpeedMPH,Gust SpeedMPH,PrecipitationIn,Events,Conditions,WindDirDegrees,DateUTC
12:56 AM,48.0,39.9,74,30.07,10.0,WNW,4.6,-,N/A,,Clear,290,2012-10-07 04:56:00
1:56 AM,48.0,39.0,71,30.06,10.0,NW,5.8,-,N/A,,Clear,310,2012-10-07 05:56:00
2:56 AM,51.1,36.0,56,30.05,10.0,WNW,3.5,-,N/A,,Clear,300,2012-10-07 06:56:00
3:56 AM,48.9,36.0,61,30.04,10.0,Calm,Calm,-,N/A,,Clear,0,2012-10-07 07:56:00
4:56 AM,48.0,37.9,68,30.06,10.0,SW,3.5,-,N/A,,Mostly Cloudy,220,2012-10-07 08:56:00
5:56 AM,48.0,39.0,71,30.10,10.0,West,5.8,-,N/A,,Overcast,260,2012-10-07 09:56:00
6:56 AM,48.0,39.0,71,30.10,10.0,WSW,3.5,-,N/A,,Overcast,240,2012-10-07 10:56:00
7:56 AM,48.0,39.9,74,30.12,10.0,West,4.6,-,0.00,Rain,Light Rain,260,2012-10-07 11:56:00
8:56 AM,48.0,43.0,83,30.13,10.0,Calm,Calm,-,0.00,,Overcast,0,2012-10-07 12:56:00
9:56 AM,50.0,41.0,71,30.14,10.0,SW,3.5,-,N/A,,Overcast,230,2012-10-07 13:56:00
10:56 AM,51.1,41.0,68,30.13,10.0,Calm,Calm,-,N/A,,Overcast,0,2012-10-07 14:56:00
11:56 AM,54.0,39.0,57,30.11,10.0,South,5.8,-,N/A,,Mostly Cloudy,190,2012-10-07 15:56:00
12:56 PM,54.0,39.0,57,30.10,10.0,WSW,4.6,-,N/A,,Overcast,240,2012-10-07 16:56:00
1:56 PM,54.0,39.0,57,30.08,10.0,South,5.8,-,N/A,,Overcast,180,2012-10-07 17:56:00
2:56 PM,54.0,39.0,57,30.05,10.0,SSW,3.5,-,N/A,,Overcast,210,2012-10-07 18:56:00
3:56 PM,54.0,39.9,59,30.05,10.0,WSW,3.5,-,N/A,,Overcast,240,2012-10-07 19:56:00
4:56 PM,53.1,41.0,64,30.05,10.0,WSW,4.6,-,0.00,,Overcast,240,2012-10-07 20:56:00
5:56 PM,51.1,43.0,74,30.09,10.0,WSW,5.8,-,0.00,Rain,Light Rain,240,2012-10-07 21:56:00
6:56 PM,50.0,45.0,83,30.10,10.0,SW,4.6,-,0.02,Rain,Light Rain,230,2012-10-07 22:56:00
7:56 PM,48.9,45.0,86,30.12,10.0,West,6.9,-,0.01,,Overcast,270,2012-10-07 23:56:00
8:56 PM,48.9,44.1,83,30.14,10.0,West,4.6,-,N/A,,Overcast,270,2012-10-08 00:56:00
9:56 PM,46.0,42.1,86,30.15,10.0,West,4.6,-,N/A,,Partly Cloudy,260,2012-10-08 01:56:00
10:56 PM,46.0,39.9,79,30.17,10.0,WNW,5.8,-,N/A,,Scattered Clouds,300,2012-10-08 02:56:00
11:56 PM,45.0,39.0,80,30.17,10.0,WNW,5.8,-,N/A,,Overcast,290,2012-10-08 03:56:00